{"data":{"norad_id":63068,"epoch":"2026-09-21T00:46:59.256192Z","epoch_age_seconds":116280,"freshness":"FRESH","line1":"1 63068U 25035S   26264.03263028  .00011591  00000+0  42992-3 0  9997","line2":"2 63068  43.0040 123.9857 0001453 281.3651  78.7037 15.27592026 89592","mean_motion":15.27592026,"eccentricity":0.0001453,"inclination_deg":43.004,"raan_deg":123.9857,"arg_perigee_deg":281.3651,"mean_anomaly_deg":78.7037,"bstar":0.00042992,"rev_number":8959,"period_min":94.266006596712,"perigee_km":482.01616099805,"apogee_km":484.01001121308,"semimajor_km":6861.1500861056,"source":"CELESTRAK","updated_at":"2026-09-22T09:00:49.754161Z"}}